sat.trackr.live / text

‹ back to catalog

STARLINK-30823

NORAD 58248 · 2023-171U

PAYLOAD ACTIVE UNKNOWN

§ Identity

Operator
Country
US
Launch date
2023-11-08
Launch site
AFETR
Launch vehicle
Mass (kg)
RCS (m²)

Purposes: comms

External: N2YO · Heavens-Above · Gunter

§ Orbital elements

Epoch: 2026-09-19T18:03:39.038688Z

Period
94.27 min
Inclination
43.0060°
Eccentricity
0.0002188
Mean motion
15.27585131 rev/d
Perigee alt
481.5 km
Apogee alt
484.5 km
Semi-major
6,861.2 km
B*
3.0141e-5
RAAN
269.2971°
Arg perigee
285.7991°
Mean anomaly
74.2619°
Rev number
15,941

§ Raw data

STARLINK-308231 58248U 23171U   26262.75253517  .00000567  00000+0  30141-4 0  99942 58248  43.0060 269.2971 0002188 285.7991  74.2619 15.27585131159415

JSON: /api/v1/satellites/58248 · /tle

For live sub-satellite position, see the globe view (requires WebGL).

§ Visibility from observer

Set your observer location to see the next 7 days of passes ≥ 10°. The values pass through the URL so the page stays shareable.

No JS? Fill the form by hand. The geolocation button needs JavaScript.